Showing default

OPS 9323 (IDSCS 10), 2650

Orbit data source: Space-Track

OPS 9323 (IDSCS 10), 2650 is a payload satellite owned by USAF SSD (US) in GEO that was launched on Wed, 18 Jan 1967 UTC via a TITAN IIIC launch vehicle from the Air Force Eastern Test Range (AFETR). Payload-class satellites include a variety of spacecraft equipped with specific instruments for various scientific and technological missions. These include communications satellites like Starlink; space stations such as the ISS; scientific satellites like the Hubble; Earth observation satellites from companies like Planet Labs, Umbra, and HawkEye 360; GPS; miniature CubeSats for education and research; and military/defense satellites.

Not visible in the next 10 days
Identifier
2650, 1967-003C
Orbit
GEO
Country
Flag of USUS
Related business
Manufacturer
Philco-Ford WDL
Mission
Non-operational spacecraft
Bus & Motor
IDCSP, Unknown motor
Mass
45 kg wet, 45 kg dry
Launch date (UTC)
1967-01-18 (59 years ago)
Launch vehicle
TITAN IIIC
Launch site
Air Force Eastern Test Range (AFETR)
Object type
Payload
Rocket body
Debris
Shape & HBR
Unknown
Radar Cross Section
Medium (>0.1 m² and <1 m²)

Expand to show TLE details & history
Last TLE update: 8 hours ago

TLE from 8 hours ago
0 OPS 9323 (IDSCS 10)
1 02650U 67003C   25307.89694860 -.00000061  00000-0  00000-0 0  9994
2 02650   7.8702  46.8064 0034156 109.1609 226.6138  1.08221699138000
Epoch: 2025-11-03T21:31Z
TLE epoch observation values (Epoch: 2025-11-03T21:31:36.359Z)
Latitude
-3.2453°
Longitude
16.17679°
Altitude
33,789.988 km
Speed
3.146 km/s
True Right ascension
01h 29m 52s
True Declination
-3° 14' 31"
Sunlit
Object was in daylight at epoch
Visualization orbit readout
Latitude
Unknown
Longitude
Unknown
Altitude
Unknown
Speed
Unknown
Apparent Right ascension
Unknown
Apparent Declination
Unknown
Sunlit
N/A
Visualization observer readout
Local Sidereal Time
01:39:30
Azimuth
Unknown
Elevation
Unknown
Doppler factor
Unknown
Orbital elements
Apogee altitude
33,833.489 km
Perigee altitude
33,559.73 km
Semi-major axis
40,074.747 km
Eccentricity
0.00342
Inclination
7.8702°
RAAN
46.8064°
Arg. of periapsis
109.1609°
True anomaly
226.33019°
Mean anomaly
226.6138°
Eccentric anomaly
226.47191°
Mean motion
0.27054 °/min
Orbital period
1,330.66 mins
BSTAR
0
Loading maneuver chart data...
Computing Atmospheric mass density...
Loading historical data...
Loading historical data...
Loading historical data...
Loading historical data...
Loading historical data...
Loading historical data...
Loading historical data...

Documentation

Showing up to 5 results
|